Regional Weather Roundup
Issued by NWS

Home | Current Version | Previous Version | Text Only | Print | Product List | Glossary On
Versions: 1 2 3 4 5 6 7 8 9 10 11 12 13 14 15 16 17 18 19 20 21 22 23 24 25 26 27 28 29 30 31 32 33 34 35 36 37 38 39 40 41 42 43 44 45 46 47 48 49 50
000
ASUS44 KLIX 130410
RWRLA
LOUISIANA WEATHER ROUNDUP
NATIONAL WEATHER SERVICE NEW ORLEANS LA
1100 PM CDT SAT JUL 12 2014

NOTE: "FAIR" INDICATES FEW OR NO CLOUDS BELOW 12,000 FEET WITH NO
      SIGNIFICANT WEATHER AND/OR OBSTRUCTIONS TO VISIBILITY.
      SKY/WX - SKY CONDITION AND SIGNIFICANT WEATHER.
      TMP - AIR TEMPERATURE.    DP   - DEWPOINT TEMPERATURE.
      RH  - RELATIVE HUMIDITY.  PRES - PRESSURE.
      HX  - HEAT INDEX.         WCI  - WIND CHILL INDEX.

*  THESE STATIONS ARE NOT NWS OR FAA STATIONS AND ARE NOT UNDER
   NWS QUALITY CONTROL.

LAZ040-048-061>063-065-066-069-130500-
SOUTHEAST LOUISIANA

CITY           SKY/WX    TMP DP  RH WIND       PRES   REMARKS
N.O. AUDUBON     N/A     84  74  71 MISG        N/A
N.O. INTL ARPT PTCLDY    83  74  74 CALM      30.09R
N.O. LAKEFRONT PTCLDY    83  75  77 E6        30.09S
N.O. DOWNTOWN* FAIR      84  72  65 E5        30.09S
SLIDELL        PTCLDY    76  72  87 CALM      30.09S
BATON ROUGE    LGT RAIN  77  73  87 N6        30.09S
BOOTHVILLE     PTCLDY    82  77  84 CALM      30.09S
BELLE CHASSE   PTCLDY    78  73  84 NE6       30.09R
BOGALUSA*      FAIR      77  73  86 CALM      30.11S
GALLIANO*      NOT AVBL
NEW ROADS*     CLOUDY    79  77  93 CALM      30.09S
GONZALES*      FAIR      80  76  86 CALM      30.08S
HAMMOND*       MOCLDY    79  72  78 CALM      30.10S
HOUMA*         PTCLDY    81  73  76 CALM      30.09R
PORT FOURCHON* CLEAR     86  73  66 S3        30.10R

$$

LAZ041-044-053-054-130500-
SOUTHWEST LOUISIANA

CITY           SKY/WX    TMP DP  RH WIND       PRES   REMARKS
LAKE CHARLES   CLEAR     74  73  97 CALM      30.07S FOG
LAFAYETTE      PTCLDY    78  75  90 CALM      30.07S
PATTERSON      PTCLDY    79  73  83 CALM      30.13R
SALT POINT       N/A     85  76  74 CALM      30.07S
NEW IBERIA     PTCLDY    77  74  90 W6        30.07F
CHENAULT AIRPK CLEAR     75  72  88 CALM      30.08S

$$

LAZ027-028-130500-
CENTRAL LOUISIANA

CITY           SKY/WX    TMP DP  RH WIND       PRES   REMARKS
FORT POLK      CLEAR     75  73  93 CALM      30.09S
ALEXANDRIA INT CLEAR     76  73  91 CALM      30.07S
ALEXANDRIA     CLEAR     76  73  91 CALM      30.09R

$$

LAZ001-002-130500-
NORTHWEST LOUISIANA

CITY           SKY/WX    TMP DP  RH WIND       PRES   REMARKS
SHREVEPORT     CLEAR     82  72  71 SE3       30.07S
BARKSDALE AFB  NOT AVBL
DTN SHREVEPORT CLEAR     82  71  69 SE8       30.07S

$$

LAZ014-016-130500-
NORTHEAST LOUISIANA

CITY           SKY/WX    TMP DP  RH WIND       PRES   REMARKS
MONROE         CLEAR     80  75  84 CALM      30.10R
TALLULAH       CLEAR     75  73  93 CALM      30.09S

$$



USA.gov is the U.S. government's official web portal to all federal, state and local government web resources and services.